Location: Kuppenheim
(48.8299°N, 8.2568°E)
Time: 11:17:57
(UTC+00:00)

Cosmos 1782 - Pass Details

Date: 20 June 2021
Orbit: 537 x 549 km, 82.5° (Epoch: 28 July)

Event Time Altitude Azimuth Distance (km) Brightness Sun altitude
Rises 02:09:29 0° 347° (NNW) 2,719 7.0 -9.3°
Reaches altitude 10° 02:11:40 10° 345° (NNW) 1,824 6.0 -9.1°
Maximum altitude 02:15:38 65° 264° (W) 605 2.8 -8.7°
Drops below altitude 10° 02:19:35 10° 182° (S) 1,815 5.0 -8.3°
Enters shadow 02:20:43 - 180° (S) 2,275 5.5 -8.2°
